Regional Weather Roundup
Issued by NWS

Home | Current Version | Previous Version | Text Only | Print | Product List | Glossary On
Versions: 1 2 3 4 5 6 7 8 9 10 11 12 13 14 15 16 17 18 19 20 21 22 23 24 25 26 27 28 29 30 31 32 33 34 35 36 37 38 39 40 41 42 43 44 45 46 47 48 49 50
372
ASUS43 KTOP 290908
RWRKS

WEATHER ROUNDUP FOR KANSAS
NATIONAL WEATHER SERVICE GOODLAND KS
400 AM CDT MON AUG 29 2016

NOTE:  "FAIR" INDICATES FEW OR NO CLOUDS BELOW 12,000 FEET WITH NO
SIGNIFICANT WEATHER AND/OR OBSTRUCTIONS TO VISIBILITY.

KSZ001>006-013>018-027>032-041>047-291000-
NORTHWEST KANSAS

CITY           SKY/WX    TMP DP  RH WIND       PRES   REMARKS
GOODLAND       CLOUDY    63  59  87 S5        30.18R
HAYS           MOCLDY    68  59  73 E5        30.16S
HILL CITY      CLOUDY    67  64  90 E8        30.17R
RUSSELL        MOCLDY    67  65  93 NE5       30.15R
$$

KSZ061>065-074>080-084>089-291000-
SOUTHWEST KANSAS

CITY           SKY/WX    TMP DP  RH WIND       PRES   REMARKS
DODGE CITY     PTCLDY    65  64  97 N3        30.16R FOG
ELKHART          N/A     62  59  90 E1          N/A
GARDEN CITY    PTCLDY    63  61  93 E6        30.16S
GREAT BEND     MOCLDY    68  61  77 E6        30.15S
LIBERAL        CLOUDY    66  61  82 SW5       30.17R
PRATT          CLOUDY    64  63  95 N3        30.14S
$$

KSZ066>073-081>083-090>101-291000-
SOUTHEAST KANSAS

CITY           SKY/WX    TMP DP  RH WIND       PRES   REMARKS
CHANUTE        CLEAR     72  69  90 E5        30.11R
COFFEYVILLE    CLEAR     71  68  90 CALM      30.09S
HUTCHINSON     PTCLDY    70  67  90 CALM      30.12S
MEDICINE LODGE   N/A     68  67  96 CALM      30.12R
NEWTON         PTCLDY    70  69  97 CALM      30.14R FOG
PARSONS        CLEAR     69  68  96 CALM      30.11S
WICHITA INTL   MOCLDY    73  69  87 N8        30.12R
WICHITA JABRA  CLEAR     71  70  96 CALM      30.12R
WICHITA MCCONL CLEAR     74  69  85 CALM      30.12R
WINFIELD       PTCLDY    73  68  84 E3        30.12R
$$

KSZ007>012-019>026-033>040-048>060-102>105-291000-
NORTHEAST KANSAS

CITY           SKY/WX    TMP DP  RH WIND       PRES   REMARKS
CONCORDIA      PTCLDY    68  64  87 W7        30.15S
EMPORIA        CLEAR     69  68  96 E5        30.12R
LAWRENCE       CLEAR     69  68  96 CALM      30.13R
MANHATTAN      PTCLDY    71  69  93 CALM      30.12R
MARYSVILLE     CLOUDY    68  68 100 CALM      30.14R
OLATHE IND     CLEAR     72  70  93 CALM      30.14R
OLATHE EXE     CLEAR     71  69  93 CALM      30.14R
SALINA         CLOUDY    73  70  90 NW7       30.14R
TOPEKA BILLARD CLOUDY    71  69  93 NE3       30.13R
TOPEKA FORBES  CLEAR     72  69  90 CALM      30.13R
$$




USA.gov is the U.S. government's official web portal to all federal, state and local government web resources and services.